sat.trackr.live / text

‹ back to catalog

STARLINK-36114

NORAD 66870 · 2025-281Y

PAYLOAD ACTIVE UNKNOWN

§ Identity

Operator
Country
US
Launch date
2025-12-02
Launch site
AFETR
Launch vehicle
Mass (kg)
RCS (m²)

Purposes: comms

External: N2YO · Heavens-Above · Gunter

§ Orbital elements

Epoch: 2026-05-25T01:28:12.360288Z

Period
94.27 min
Inclination
43.0018°
Eccentricity
0.0001892
Mean motion
15.27576991 rev/d
Perigee alt
481.8 km
Apogee alt
484.4 km
Semi-major
6,861.2 km
B*
1.1895e-4
RAAN
272.3329°
Arg perigee
269.3913°
Mean anomaly
90.6722°
Rev number
2,785

§ Raw data

STARLINK-361141 66870U 25281Y   26145.06125417  .00003012  00000+0  11895-3 0  99912 66870  43.0018 272.3329 0001892 269.3913  90.6722 15.27576991 27856

JSON: /api/v1/satellites/66870 · /tle

For live sub-satellite position, see the globe view (requires WebGL).

§ Visibility from observer

Set your observer location to see the next 7 days of passes ≥ 10°. The values pass through the URL so the page stays shareable.

No JS? Fill the form by hand. The geolocation button needs JavaScript.